Location: Katowice
(50.2611°N, 19.0242°E)
Time: 14:56:22
(UTC+02:00)

Explorer 7 - Pass Details

Date: 26 August 2019
Orbit: 485 x 680 km, 50.3° (Epoch: 16 September)

Event Time Altitude Azimuth Distance (km) Brightness Sun altitude
Rises 08:27:46 0° 209° (SSW) 3,020 10.4 24.2°
Reaches altitude 10° 08:30:28 10° 197° (SSW) 2,100 9.8 24.6°
Maximum altitude 08:34:25 25° 143° (SE) 1,329 9.9 25.3°
Drops below altitude 10° 08:38:17 10° 88° (E) 2,049 11.2 25.9°
Sets 08:40:53 0° 75° (ENE) 2,932 11.4 26.3°
